Regional Weather Roundup
Issued by NWS Cleveland, OH

Home | Current Version | Previous Version | Text Only | Print | Product List | Glossary Off
Versions: 1 2 3 4 5 6 7 8 9 10 11 12 13 14 15 16 17 18 19 20 21 22 23 24 25 26 27 28 29 30 31 32 33 34 35 36 37 38 39 40 41 42 43 44 45 46 47 48 49 50

000
ASUS41 KCLE 250900
RWRCLE
OHIO REGIONAL WEATHER ROUNDUP
NATIONAL WEATHER SERVICE WILMINGTON, OH
500 AM EDT SAT MAR 25 2017

NOTE: "FAIR" INDICATES FEW OR NO CLOUDS BELOW 12,000 FEET WITH NO
SIGNIFICANT WEATHER AND/OR OBSTRUCTIONS TO VISIBILITY.

OHZ001>008-015>018-024>027-034-035-043-044-251000-
   NORTHWEST OHIO

CITY           SKY/WX    TMP DP  RH WIND       PRES   REMARKS
DEFIANCE       CLOUDY    55  50  83 CALM      30.04S
FINDLAY        FAIR      61  51  70 SW10      30.04F
TOLEDO EXPRESS CLOUDY    46  40  79 E8        30.07S
TOLEDO EXEC    MOCLDY    45  40  82 E5        30.09S
LIMA           FAIR      61  53  75 S8        30.06S
$$

OHZ009>014-019>023-028>033-038-089-251000-
   NORTHEAST OHIO

CITY           SKY/WX    TMP DP  RH WIND       PRES   REMARKS
CLE-HOPKINS    FAIR      54  47  77 SE3       30.09F
CLE-LAKEFRONT  FAIR      54  46  74 S5        30.05F
CUY CO. ARPT   NOT AVBL
LORAIN-ELYRIA  FAIR      51  45  79 CALM      30.07S
ASHTABULA      MOCLDY    52  48  86 CALM      30.08R
AKRON-CANTON   FAIR      60  50  69 SW8       30.10S
WOOSTER        NOT AVBL
MANSFIELD      MOCLDY    62  52  69 MISG      30.09S
YOUNGSTOWN     CLOUDY    61  51  70 SW10      30.09R
$$

OHZ042-051>053-060>062-070>072-077>081-251000-
  SOUTHWEST OHIO

CITY           SKY/WX    TMP DP  RH WIND       PRES   REMARKS
CINC-COVINGTON CLOUDY    58  51  78 S10       30.10F
CINC-LUNKEN    FAIR      58  51  78 SW5       30.11F
HAMILTON       FAIR      63  52  67 CALM      30.10F
DAYTON         NOT AVBL
WRIGHT-PAT AFB FAIR      61  52  73 S12       30.09S
DAYTON GENERAL FAIR      59  51  75 S9        30.09F
WILMINGTON     FAIR      58  50  75 S10       30.11F
$$

OHZ036-037-039>041-045>050-054>059-063>069-073>076-082>088-251000-
  CENTRAL AND SOUTHEAST OHIO

CITY           SKY/WX    TMP DP  RH WIND       PRES   REMARKS
COLUMBUS       CLOUDY    62  51  67 S9        30.11R
OSU AIRPORT    FAIR      60  52  74 S7        30.10S
BOLTON FIELD   NOT AVBL
RICKENBACK AFB NOT AVBL
NEWARK         FAIR      61  50  67 SW6       30.11S
MARION         FAIR      57  51  80 S8        30.09S
LANCASTER      FAIR      64  50  60 S8        30.12F
ZANESVILLE     FAIR      61  49  64 S7        30.12S
NEW PHILLY     FAIR      64  52  64 VRB5      30.12S
$$




USA.gov is the U.S. government's official web portal to all federal, state and local government web resources and services.